[[{"header":{"parameterUnit":"m.s-1","parameterCategory":2,"la1":30.2991,"la2":30.254,"lo1":-89.0895,"lo2":-89.0444,"dy":0.0017,"dx":0.0017,"nx":28,"ny":28,"refTime":"2023-07-30T09:00:00:Z","depth":"0","parameterNumber":2,"parameterNumberName":"U-component_of_CURRENTS"},"data":[0,0,0,0,0,0,0,0,0,0,0,0,0,0,0,0,0,0,0,0,0,0,0,0,0,0,0,0,0,0,0,0,0,0,0,0,0,0,0,0,0,0,0,0,0,0,0,0,0,0,0,0,0,0,0,0,0,0,-0.1312,-0.1313,0,-0.1373,-0.1374,-0.1374,-0.1345,-0.1344,-0.1342,-0.1341,-0.1257,-0.1257,-0.1256,0,0,0,0,0,0,0,0,0,0,0,0,0,-0.1186,-0.1188,-0.1312,-0.1313,-0.1314,-0.1373,-0.1374,-0.1374,-0.1345,-0.1344,-0.1342,-0.134,-0.1258,-0.1257,-0.1256,0,0,0,0,0,0,0,0,0,0,0,0,0,-0.1242,-0.1189,-0.1312,-0.1307,-0.1308,-0.1373,-0.1374,-0.1375,-0.1346,-0.1344,-0.1342,-0.134,-0.1258,-0.1257,-0.1255,-0.129,0,0,-0.1251,-0.1251,0,0,0,0,0,0,0,0,-0.1239,-0.1246,-0.1307,-0.1308,-0.1308,-0.1351,-0.1299,-0.134,-0.1346,-0.133,-0.1341,-0.1338,-0.1278,-0.1275,-0.1291,-0.1286,-0.1282,-0.1251,-0.125,-0.125,-0.1249,0,0,0,0,0,0,0,-0.1235,-0.1243,-0.1334,-0.1308,-0.1309,-0.1308,-0.1313,-0.1307,-0.1311,-0.1331,-0.1329,-0.1339,-0.1276,-0.1292,-0.1288,-0.1281,-0.1251,-0.125,-0.1249,-0.1249,-0.1269,-0.1271,0,0,0,0,0,0,-0.1232,-0.124,-0.1332,-0.1336,-0.1269,-0.1312,-0.1318,-0.1338,-0.1314,-0.131,-0.1341,-0.1338,-0.1296,-0.129,-0.1285,-0.1298,-0.125,-0.1248,-0.1248,-0.1268,-0.127,-0.1271,0,0,0,0,0,0,-0.123,-0.1241,-0.133,-0.129,-0.1301,-0.1317,-0.1339,-0.134,-0.1348,-0.1324,-0.1316,-0.1346,-0.1294,-0.1287,-0.1277,-0.1295,-0.1248,-0.1247,-0.1266,-0.1269,-0.1271,-0.134,0,0,0,0,0,0,-0.1226,-0.1239,-0.1248,-0.129,-0.1304,-0.1374,-0.1342,-0.1343,-0.1358,-0.1354,-0.1326,-0.1317,-0.1292,-0.1279,-0.1275,-0.1292,-0.1246,-0.1265,-0.1267,-0.127,-0.1336,-0.1344,-0.1351,0,0,0,0,0,-0.1221,-0.1246,-0.1249,-0.126,-0.1318,-0.1376,-0.1383,-0.1384,-0.1361,-0.1379,-0.1351,-0.1317,-0.1292,-0.128,-0.1275,-0.1291,-0.1264,-0.1267,-0.127,-0.1332,-0.1342,-0.1351,0,0,0,0,0,0,-0.1191,-0.1247,-0.125,-0.1289,-0.1331,-0.1371,-0.1386,-0.1389,-0.1388,-0.1373,-0.1335,-0.1326,-0.1327,-0.1304,-0.129,-0.1306,-0.1273,-0.1275,-0.1322,-0.1331,-0.1339,-0.136,-0.1244,0,0,0,0,0,-0.1193,-0.1225,-0.1278,-0.1306,-0.1328,-0.1357,-0.1376,-0.1389,-0.1397,-0.1395,-0.1373,-0.135,-0.1342,-0.1329,-0.1322,-0.133,-0.1343,-0.1338,-0.1346,-0.1353,-0.1368,-0.1427,-0.1442,-0.1281,-0.1281,-0.1281,0,0,-0.1188,-0.1222,-0.1239,-0.1302,-0.1329,-0.1377,-0.1363,-0.1406,-0.1432,-0.1385,-0.1394,-0.1378,-0.1352,-0.1363,-0.1361,-0.134,-0.1403,-0.1356,-0.1362,-0.1375,-0.1432,-0.1448,-0.1462,-0.1283,-0.1283,-0.1283,0,0,-0.1205,-0.1228,-0.1264,-0.1308,-0.1364,-0.1389,-0.1402,-0.1448,-0.145,-0.1474,-0.1443,-0.1447,-0.1424,-0.1425,-0.1416,-0.1465,-0.1446,-0.1448,-0.1498,-0.1555,-0.1569,-0.1581,-0.161,-0.1624,-0.1447,-0.1447,-0.1447,0,-0.1192,-0.125,-0.1283,-0.1336,-0.137,-0.1394,-0.1445,-0.1466,-0.1498,-0.1507,-0.1479,-0.1494,-0.1463,-0.1494,-0.1499,-0.1484,-0.15,-0.1462,-0.1566,-0.1579,-0.1591,-0.1617,-0.1632,-0.145,-0.145,-0.145,-0.1449,0,-0.1246,-0.1291,-0.1317,-0.1387,-0.1431,-0.148,-0.1524,-0.1548,-0.1546,-0.1567,-0.1598,-0.1585,-0.1592,-0.1584,-0.1546,-0.1612,-0.1591,-0.1574,-0.1545,-0.1611,-0.1634,-0.1649,-0.1456,-0.1454,-0.1453,-0.1452,0,0,-0.1216,-0.133,-0.1338,-0.138,-0.1463,-0.1507,-0.1553,-0.1609,-0.1637,-0.1662,-0.1709,-0.1702,-0.1702,-0.1695,-0.167,-0.1709,-0.1788,-0.1669,-0.1671,-0.1702,-0.1898,-0.1837,-0.1846,-0.1789,-0.1792,-0.1794,-0.1878,0,-0.1241,-0.1336,-0.1392,-0.1476,-0.1528,-0.1575,-0.162,-0.1671,-0.1695,-0.1745,-0.1761,-0.1789,-0.1742,-0.1747,-0.1786,-0.1779,-0.1831,-0.1766,-0.1826,-0.1828,-0.1769,-0.1863,-0.1704,-0.1762,-0.1892,-0.1894,-0.1896,0,-0.127,-0.1333,-0.1418,-0.1523,-0.155,-0.1598,-0.1674,-0.1722,-0.1794,-0.1815,-0.1866,-0.1877,-0.1925,-0.1887,-0.1951,-0.1907,-0.1916,-0.1922,-0.1925,-0.1857,-0.1795,-0.1718,-0.1783,-0.1629,-0.1918,-0.1916,-0.1915,0,-0.1223,-0.1347,-0.1407,-0.1447,-0.1569,-0.1603,-0.1655,-0.1732,-0.1768,-0.1862,-0.1894,-0.1971,-0.1993,-0.2041,-0.2016,-0.1997,-0.209,-0.2068,-0.2038,-0.2032,-0.1905,-0.1883,-0.1833,-0.2162,-0.2161,-0.2161,-0.2161,0,-0.1224,-0.1271,-0.1388,-0.1423,-0.1491,-0.1584,-0.1648,-0.1707,-0.1799,-0.1846,-0.1918,-0.1964,-0.2033,-0.2073,-0.2073,-0.2084,-0.2138,-0.2076,-0.2067,-0.1921,-0.1901,-0.1765,-0.1769,-0.2164,-0.2164,-0.2163,-0.2162,0,-0.1162,-0.1238,-0.1314,-0.1436,-0.1468,-0.1512,-0.1621,-0.1662,-0.1756,-0.1825,-0.1855,-0.1965,-0.2026,-0.2077,-0.2152,-0.2133,-0.2107,-0.216,-0.1967,-0.1935,-0.1768,-0.1784,-0.1901,-0.186,-0.2171,-0.217,-0.2169,0,-0.1142,-0.1172,-0.1292,-0.132,-0.137,-0.1446,-0.1487,-0.1611,-0.1656,-0.1802,-0.1825,-0.1935,-0.1994,-0.2083,-0.208,-0.2117,-0.2083,-0.1994,-0.1946,-0.1761,-0.1774,-0.1839,-0.1801,-0.18,-0.1796,-0.1793,-0.1791,0,-0.1091,-0.1125,-0.1184,-0.1243,-0.1288,-0.1342,-0.1414,-0.1449,-0.1587,-0.1667,-0.1761,-0.1837,-0.1937,-0.1917,-0.1969,-0.1963,-0.1891,-0.1936,-0.1802,-0.1545,-0.1561,-0.1511,-0.1725,-0.1764,-0.1767,-0.1769,-0.177,-0.1771,-0.1033,-0.1051,-0.1113,-0.1163,-0.1199,-0.1212,-0.1206,-0.1311,-0.1385,-0.1481,-0.1637,-0.1723,-0.1736,-0.1794,-0.1751,-0.1528,-0.1754,-0.1471,-0.1528,-0.1626,-0.153,-0.1681,-0.1672,-0.1674,-0.1676,-0.1678,-0.1679,0,-0.0966,-0.0988,-0.1027,-0.1066,-0.1047,-0.1102,-0.1131,-0.1122,-0.117,-0.1329,-0.1436,-0.1471,-0.1415,-0.1353,-0.1145,-0.1081,-0.1096,-0.1072,-0.1073,-0.1072,-0.1207,-0.1119,-0.0918,-0.0918,-0.0918,-0.0918,-0.0919,-0.0919,-0.093,-0.0934,-0.096,-0.091,-0.0909,-0.0841,-0.0819,-0.0843,-0.0924,-0.098,-0.1035,-0.1142,-0.0976,-0.0888,-0.0671,-0.0683,-0.0673,-0.0754,-0.0828,-0.08,-0.0838,-0.0875,-0.0783,-0.0516,-0.0516,-0.0587,-0.0587,-0.0587]},{"header":{"parameterUnit":"m.s-1","parameterCategory":2,"la1":30.2991,"la2":30.254,"lo1":-89.0895,"lo2":-89.0444,"dy":0.0017,"dx":0.0017,"nx":28,"ny":28,"refTime":"2023-07-30T09:00:00:Z","depth":"0","parameterNumber":3,"parameterNumberName":"V-component_of_CURRENTS"},"data":[0,0,0,0,0,0,0,0,0,0,0,0,0,0,0,0,0,0,0,0,0,0,0,0,0,0,0,0,0,0,0,0,0,0,0,0,0,0,0,0,0,0,0,0,0,0,0,0,0,0,0,0,0,0,0,0,0,0,-0.1019,-0.1018,0,-0.0938,-0.0937,-0.0936,-0.0859,-0.0858,-0.0857,-0.0856,-0.0733,-0.0731,-0.0729,0,0,0,0,0,0,0,0,0,0,0,0,0,-0.1024,-0.1025,-0.1019,-0.1018,-0.1017,-0.0938,-0.0937,-0.0936,-0.0859,-0.0858,-0.0857,-0.0856,-0.0734,-0.0731,-0.0729,0,0,0,0,0,0,0,0,0,0,0,0,0,-0.0991,-0.1025,-0.1019,-0.0969,-0.0964,-0.0938,-0.0937,-0.0935,-0.0859,-0.0858,-0.0857,-0.0855,-0.0735,-0.0732,-0.0728,-0.0735,0,0,-0.0717,-0.0716,0,0,0,0,0,0,0,0,-0.0993,-0.0991,-0.0978,-0.0973,-0.0967,-0.0907,-0.0893,-0.0866,-0.086,-0.0899,-0.0856,-0.0854,-0.0789,-0.0781,-0.0769,-0.073,-0.0724,-0.0717,-0.0715,-0.0713,-0.0712,0,0,0,0,0,0,0,-0.0995,-0.0993,-0.0987,-0.0977,-0.097,-0.0922,-0.0916,-0.0888,-0.0853,-0.0896,-0.089,-0.0881,-0.0785,-0.0773,-0.0766,-0.0723,-0.0717,-0.0714,-0.0712,-0.071,-0.0668,-0.0669,0,0,0,0,0,0,-0.1012,-0.0996,-0.099,-0.0985,-0.0976,-0.0923,-0.0917,-0.0928,-0.0853,-0.0841,-0.0882,-0.0878,-0.078,-0.077,-0.0761,-0.0765,-0.0713,-0.071,-0.0708,-0.0667,-0.0668,-0.067,0,0,0,0,0,0,-0.1012,-0.1013,-0.0993,-0.0987,-0.0981,-0.0926,-0.0937,-0.0927,-0.091,-0.0844,-0.083,-0.0876,-0.0778,-0.0766,-0.0743,-0.076,-0.0708,-0.0705,-0.0666,-0.0668,-0.0669,-0.0773,0,0,0,0,0,0,-0.1013,-0.1014,-0.103,-0.0989,-0.0982,-0.0994,-0.0939,-0.0926,-0.0907,-0.09,-0.0834,-0.0821,-0.0776,-0.0748,-0.0739,-0.0754,-0.0702,-0.0665,-0.0667,-0.0669,-0.0769,-0.0778,-0.0787,0,0,0,0,0,-0.1014,-0.1051,-0.1032,-0.1031,-0.1006,-0.0995,-0.0988,-0.0942,-0.0908,-0.0918,-0.0868,-0.0823,-0.0753,-0.0747,-0.0736,-0.075,-0.0664,-0.0666,-0.0668,-0.0765,-0.0777,-0.0786,0,0,0,0,0,0,-0.1067,-0.1045,-0.1024,-0.1054,-0.103,-0.0982,-0.0987,-0.095,-0.0918,-0.0904,-0.0838,-0.0824,-0.081,-0.0769,-0.0763,-0.0743,-0.07,-0.0701,-0.0778,-0.0788,-0.0797,-0.0803,-0.0699,0,0,0,0,0,-0.1087,-0.1105,-0.1071,-0.1094,-0.1088,-0.1037,-0.1026,-0.0991,-0.0954,-0.0937,-0.0887,-0.0838,-0.0813,-0.0792,-0.076,-0.0751,-0.0723,-0.0752,-0.0761,-0.0769,-0.0766,-0.0726,-0.0731,-0.0677,-0.0677,-0.0677,0,0,-0.111,-0.1102,-0.1111,-0.1105,-0.1082,-0.1083,-0.1028,-0.1017,-0.1008,-0.093,-0.0909,-0.087,-0.0819,-0.081,-0.0799,-0.0775,-0.0781,-0.0771,-0.0779,-0.0771,-0.0729,-0.0734,-0.0738,-0.0679,-0.0678,-0.0678,0,0,-0.1164,-0.1165,-0.119,-0.1175,-0.1147,-0.1122,-0.1123,-0.1074,-0.105,-0.1031,-0.0973,-0.0947,-0.0899,-0.0866,-0.0846,-0.0885,-0.0833,-0.0873,-0.0917,-0.0879,-0.0883,-0.0886,-0.0911,-0.0915,-0.0873,-0.0873,-0.0873,0,-0.119,-0.1214,-0.1196,-0.1207,-0.1198,-0.1145,-0.1158,-0.1135,-0.1079,-0.1063,-0.1038,-0.0968,-0.0928,-0.0913,-0.0926,-0.0906,-0.089,-0.0883,-0.0891,-0.0893,-0.0894,-0.0918,-0.0921,-0.0878,-0.0878,-0.0877,-0.0877,0,-0.1246,-0.126,-0.1276,-0.1273,-0.1272,-0.1273,-0.1238,-0.1227,-0.119,-0.1149,-0.1123,-0.1069,-0.1022,-0.1015,-0.0983,-0.0973,-0.0967,-0.0913,-0.0866,-0.0906,-0.0929,-0.0931,-0.0886,-0.0884,-0.0883,-0.0881,0,0,-0.1307,-0.1314,-0.1315,-0.1321,-0.1299,-0.1305,-0.1309,-0.1293,-0.1286,-0.1235,-0.1224,-0.1182,-0.1131,-0.1104,-0.1057,-0.1027,-0.1047,-0.0978,-0.0973,-0.1009,-0.1007,-0.0973,-0.0971,-0.0984,-0.0983,-0.0983,-0.104,0,-0.1346,-0.1383,-0.1376,-0.1407,-0.1419,-0.1386,-0.1395,-0.1371,-0.1339,-0.1316,-0.1256,-0.1226,-0.1171,-0.1151,-0.1114,-0.1049,-0.1045,-0.1039,-0.0956,-0.0956,-0.0923,-0.0969,-0.0821,-0.0854,-0.1041,-0.1041,-0.1041,0,-0.1392,-0.1409,-0.1448,-0.1463,-0.1468,-0.1483,-0.1486,-0.1482,-0.144,-0.1414,-0.1366,-0.1303,-0.126,-0.1204,-0.1126,-0.1121,-0.1079,-0.1037,-0.1037,-0.096,-0.0921,-0.0832,-0.0849,-0.057,-0.1043,-0.1043,-0.1042,0,-0.1432,-0.146,-0.1495,-0.1495,-0.1506,-0.1525,-0.1533,-0.1507,-0.1516,-0.1467,-0.1471,-0.1379,-0.1364,-0.1263,-0.1192,-0.1144,-0.1128,-0.1043,-0.0993,-0.0993,-0.0827,-0.0811,-0.0558,-0.1006,-0.1006,-0.1005,-0.1005,0,-0.1469,-0.1493,-0.1517,-0.1531,-0.1576,-0.1569,-0.1606,-0.1594,-0.159,-0.1624,-0.1519,-0.1548,-0.1373,-0.134,-0.1236,-0.1145,-0.1165,-0.1015,-0.0993,-0.0866,-0.0855,-0.057,-0.0485,-0.1008,-0.1007,-0.1007,-0.1006,0,-0.1493,-0.1508,-0.1546,-0.1576,-0.1594,-0.1621,-0.1671,-0.17,-0.1687,-0.1735,-0.1729,-0.1682,-0.1634,-0.1502,-0.138,-0.123,-0.0983,-0.1105,-0.1008,-0.097,-0.0579,-0.0509,-0.0392,-0.0266,-0.0998,-0.0997,-0.0997,0,-0.1502,-0.1526,-0.1578,-0.1611,-0.1628,-0.1676,-0.1721,-0.174,-0.1796,-0.1844,-0.1896,-0.1862,-0.1885,-0.1704,-0.1407,-0.1214,-0.1035,-0.0943,-0.0793,-0.0545,-0.045,-0.046,-0.0362,-0.0647,-0.0643,-0.0641,-0.0638,0,-0.1507,-0.1529,-0.1549,-0.163,-0.1692,-0.1768,-0.185,-0.1914,-0.1968,-0.2042,-0.2156,-0.2178,-0.1981,-0.1698,-0.1396,-0.1206,-0.0704,-0.0878,-0.0606,-0.0146,-0.0154,-0.0026,-0.068,-0.0613,-0.0616,-0.0618,-0.0619,-0.062,-0.1491,-0.1507,-0.1553,-0.1628,-0.1711,-0.1839,-0.1902,-0.2044,-0.2168,-0.2292,-0.2357,-0.2361,-0.1851,-0.139,-0.1192,-0.0456,-0.0588,-0.0169,-0.0117,-0.0161,0.0022,-0.0622,-0.0529,-0.0531,-0.0532,-0.0534,-0.0535,0,-0.1465,-0.1494,-0.1559,-0.1648,-0.1743,-0.1805,-0.1969,-0.2057,-0.2235,-0.2379,-0.2508,-0.2017,-0.1528,-0.0943,0.001,0.0347,0.0397,0.0519,0.0626,0.0685,0.0172,0.0263,0.0517,0.0517,0.0517,0.0516,0.0516,0.0516,-0.1448,-0.149,-0.1531,-0.1654,-0.1722,-0.1843,-0.193,-0.2116,-0.2232,-0.223,-0.2033,-0.1885,-0.0788,0.0246,0.1099,0.1153,0.137,0.1265,0.1327,0.111,0.1053,0.0999,0.1115,0.1544,0.1545,0.1892,0.1896,0.1899]}],[{"header":{"parameterUnit":"m.s-1","parameterCategory":2,"la1":30.2991,"la2":30.254,"lo1":-89.0895,"lo2":-89.0444,"dy":0.0017,"dx":0.0017,"nx":28,"ny":28,"refTime":"2023-07-30T09:00:00:Z","depth":"2","parameterNumber":2,"parameterNumberName":"U-component_of_CURRENTS"},"data":[0,0,0,0,0,0,0,0,0,0,0,0,0,0,0,0,0,0,0,0,0,0,0,0,0,0,0,0,0,0,0,0,0,0,0,0,0,0,0,0,0,0,0,0,0,0,0,0,0,0,0,0,0,0,0,0,0,0,-0.2141,-0.2143,0,-0.2364,-0.2367,-0.2371,-0.2474,-0.2472,-0.2471,-0.247,-0.2596,-0.2601,-0.2605,0,0,0,0,0,0,0,0,0,0,0,0,0,-0.1981,-0.1984,-0.2141,-0.2143,-0.2144,-0.2363,-0.2367,-0.2372,-0.2474,-0.2472,-0.2471,-0.2469,-0.2595,-0.26,-0.2606,0,0,0,0,0,0,0,0,0,0,0,0,0,-0.2123,-0.1984,-0.2141,-0.2212,-0.222,-0.2362,-0.2368,-0.2373,-0.2474,-0.2472,-0.247,-0.2468,-0.2593,-0.26,-0.2607,-0.269,0,0,-0.2628,-0.2631,0,0,0,0,0,0,0,0,-0.2115,-0.2131,-0.22,-0.2207,-0.2216,-0.2378,-0.2357,-0.247,-0.2475,-0.2391,-0.247,-0.2467,-0.2508,-0.2522,-0.2587,-0.2696,-0.2701,-0.2628,-0.2633,-0.2636,-0.2638,0,0,0,0,0,0,0,-0.2105,-0.2123,-0.2242,-0.2202,-0.2212,-0.2293,-0.2311,-0.2381,-0.2466,-0.2398,-0.2403,-0.2408,-0.2513,-0.2581,-0.259,-0.2703,-0.2628,-0.2634,-0.2639,-0.2641,-0.2811,-0.2811,0,0,0,0,0,0,-0.2045,-0.2113,-0.2235,-0.2247,-0.2145,-0.2296,-0.2317,-0.2338,-0.2467,-0.2482,-0.241,-0.2412,-0.257,-0.2582,-0.2595,-0.2653,-0.2636,-0.2642,-0.2646,-0.2811,-0.2811,-0.2811,0,0,0,0,0,0,-0.2042,-0.2055,-0.2225,-0.2174,-0.2199,-0.2298,-0.2324,-0.2343,-0.2428,-0.2475,-0.249,-0.2473,-0.2569,-0.2585,-0.268,-0.2659,-0.2645,-0.2652,-0.281,-0.2811,-0.2811,-0.2797,0,0,0,0,0,0,-0.2037,-0.2053,-0.2069,-0.217,-0.22,-0.2306,-0.2325,-0.2349,-0.2427,-0.2433,-0.2534,-0.2543,-0.2568,-0.2669,-0.2686,-0.2668,-0.2657,-0.281,-0.2811,-0.2811,-0.2797,-0.2797,-0.2797,0,0,0,0,0,-0.2031,-0.2056,-0.2069,-0.2084,-0.2212,-0.2305,-0.2331,-0.2402,-0.2432,-0.2474,-0.255,-0.2541,-0.2682,-0.2678,-0.2698,-0.268,-0.281,-0.281,-0.2811,-0.2797,-0.2797,-0.2797,0,0,0,0,0,0,-0.1996,-0.207,-0.2087,-0.2133,-0.2205,-0.2317,-0.2367,-0.2422,-0.2527,-0.2551,-0.2591,-0.2607,-0.2657,-0.2692,-0.2685,-0.2726,-0.2727,-0.2732,-0.2709,-0.271,-0.271,-0.268,-0.2663,0,0,0,0,0,-0.1991,-0.2047,-0.2106,-0.2159,-0.218,-0.2283,-0.2337,-0.2401,-0.2491,-0.254,-0.2592,-0.2646,-0.2679,-0.2715,-0.2752,-0.2823,-0.2785,-0.2809,-0.2809,-0.2809,-0.2797,-0.2721,-0.2711,-0.2814,-0.2814,-0.2814,0,0,-0.1997,-0.2046,-0.2079,-0.2158,-0.2225,-0.2271,-0.2316,-0.2418,-0.2473,-0.2535,-0.2628,-0.2657,-0.2696,-0.2744,-0.2768,-0.2775,-0.2764,-0.281,-0.2809,-0.2797,-0.272,-0.271,-0.27,-0.2815,-0.2814,-0.2814,0,0,-0.2021,-0.2072,-0.2106,-0.2153,-0.2242,-0.2312,-0.2335,-0.2447,-0.2505,-0.2611,-0.2629,-0.2658,-0.2755,-0.2751,-0.2767,-0.2799,-0.2756,-0.2801,-0.2795,-0.2722,-0.2712,-0.2702,-0.265,-0.2636,-0.2812,-0.2812,-0.2812,0,-0.2016,-0.2065,-0.2134,-0.216,-0.2196,-0.2315,-0.2347,-0.2437,-0.2572,-0.2609,-0.2631,-0.2715,-0.2743,-0.276,-0.2758,-0.2792,-0.2755,-0.2793,-0.2718,-0.2708,-0.2698,-0.2647,-0.2631,-0.2811,-0.2811,-0.2811,-0.2811,0,-0.2042,-0.208,-0.2108,-0.2175,-0.2228,-0.2301,-0.2382,-0.2461,-0.2545,-0.2616,-0.2667,-0.2713,-0.274,-0.2745,-0.2773,-0.2719,-0.2715,-0.2713,-0.271,-0.2686,-0.2635,-0.2619,-0.281,-0.281,-0.2811,-0.2811,0,0,-0.2024,-0.2106,-0.2113,-0.2115,-0.2245,-0.2277,-0.2378,-0.2471,-0.2494,-0.2622,-0.2623,-0.2695,-0.2708,-0.2721,-0.2732,-0.2689,-0.2592,-0.2679,-0.2676,-0.2613,-0.2437,-0.2348,-0.2322,-0.2572,-0.2569,-0.2567,-0.2431,0,-0.202,-0.2047,-0.2108,-0.2144,-0.2154,-0.2263,-0.2323,-0.2429,-0.251,-0.2539,-0.2614,-0.2623,-0.2703,-0.268,-0.2661,-0.2606,-0.2549,-0.263,-0.2482,-0.2478,-0.2388,-0.2299,-0.2151,-0.2009,-0.2415,-0.2413,-0.2411,0,-0.2007,-0.2027,-0.2048,-0.2087,-0.2096,-0.2137,-0.2209,-0.2274,-0.2374,-0.2427,-0.2486,-0.2533,-0.2541,-0.2558,-0.2502,-0.2553,-0.2484,-0.2445,-0.2438,-0.2343,-0.2356,-0.2098,-0.1964,-0.2384,-0.2386,-0.2388,-0.239,0,-0.1931,-0.1972,-0.1986,-0.2003,-0.2077,-0.2094,-0.2139,-0.224,-0.2277,-0.2323,-0.2337,-0.2394,-0.2377,-0.235,-0.2357,-0.2398,-0.2245,-0.2283,-0.2141,-0.2136,-0.1972,-0.1956,-0.2159,-0.2159,-0.216,-0.216,-0.216,0,-0.1894,-0.1915,-0.1935,-0.1932,-0.1914,-0.1991,-0.1992,-0.2045,-0.2111,-0.2129,-0.2245,-0.2238,-0.2312,-0.2288,-0.2285,-0.2177,-0.2193,-0.21,-0.2071,-0.1966,-0.1952,-0.2257,-0.227,-0.2155,-0.2156,-0.2157,-0.2158,0,-0.1851,-0.189,-0.1874,-0.1887,-0.188,-0.1858,-0.1897,-0.1897,-0.1976,-0.1979,-0.1993,-0.2093,-0.2067,-0.213,-0.2047,-0.2047,-0.1965,-0.1902,-0.1794,-0.1753,-0.1925,-0.1939,-0.1721,-0.1716,-0.1712,-0.1709,-0.1706,0,-0.1828,-0.1817,-0.1786,-0.1745,-0.1754,-0.1737,-0.1736,-0.1818,-0.183,-0.1893,-0.1879,-0.1879,-0.1882,-0.1785,-0.1744,-0.1684,-0.1799,-0.1495,-0.1531,-0.1874,-0.1869,-0.189,-0.191,-0.1321,-0.1316,-0.1311,-0.1307,0,-0.1745,-0.1757,-0.1726,-0.1635,-0.1598,-0.1574,-0.1574,-0.1573,-0.1672,-0.1694,-0.1695,-0.1689,-0.1611,-0.1493,-0.1418,-0.1374,-0.1514,-0.1393,-0.1717,-0.1467,-0.1487,-0.1487,-0.152,-0.1265,-0.1269,-0.1272,-0.1274,-0.1276,-0.1673,-0.1621,-0.1559,-0.1484,-0.1448,-0.1411,-0.1369,-0.1405,-0.1412,-0.1443,-0.1502,-0.1433,-0.1402,-0.1199,-0.1127,-0.1056,-0.1179,-0.1145,-0.1163,-0.1185,-0.1173,-0.1187,-0.0907,-0.0909,-0.0911,-0.0912,-0.0914,0,-0.1532,-0.1494,-0.1398,-0.1316,-0.1257,-0.1283,-0.1258,-0.1229,-0.1211,-0.1256,-0.1277,-0.1085,-0.097,-0.093,-0.0746,-0.0716,-0.0744,-0.069,-0.0746,-0.0786,-0.0822,-0.0797,-0.0428,-0.0427,-0.0426,-0.0425,0,0,-0.1465,-0.1339,-0.1291,-0.1139,-0.1103,-0.1018,-0.0994,-0.0968,-0.0975,-0.0945,-0.0899,-0.0984,-0.0914,-0.0694,-0.0642,-0.0516,-0.0662,-0.0474,-0.086,-0.0969,-0.1005,-0.1066,-0.107,0,0,0,0,0]},{"header":{"parameterUnit":"m.s-1","parameterCategory":2,"la1":30.2991,"la2":30.254,"lo1":-89.0895,"lo2":-89.0444,"dy":0.0017,"dx":0.0017,"nx":28,"ny":28,"refTime":"2023-07-30T09:00:00:Z","depth":"2","parameterNumber":3,"parameterNumberName":"V-component_of_CURRENTS"},"data":[0,0,0,0,0,0,0,0,0,0,0,0,0,0,0,0,0,0,0,0,0,0,0,0,0,0,0,0,0,0,0,0,0,0,0,0,0,0,0,0,0,0,0,0,0,0,0,0,0,0,0,0,0,0,0,0,0,0,0.005,0.005,0,0.0192,0.0194,0.0197,0.0362,0.0363,0.0364,0.0365,0.0759,0.0769,0.0778,0,0,0,0,0,0,0,0,0,0,0,0,0,0.0053,0.0052,0.005,0.005,0.005,0.0191,0.0195,0.0198,0.0362,0.0363,0.0364,0.0366,0.0756,0.0768,0.0779,0,0,0,0,0,0,0,0,0,0,0,0,0,0.0124,0.0052,0.005,0.0136,0.0144,0.019,0.0195,0.0199,0.0362,0.0363,0.0365,0.0366,0.0753,0.0767,0.0781,0.0842,0,0,0.0825,0.0831,0,0,0,0,0,0,0,0,0.012,0.0126,0.0124,0.013,0.0139,0.0246,0.0339,0.0421,0.0362,0.0297,0.0365,0.0367,0.0599,0.0626,0.067,0.086,0.0877,0.0826,0.0835,0.0841,0.0845,0,0,0,0,0,0,0,0.0115,0.0122,0.0123,0.0123,0.0133,0.0212,0.0225,0.0357,0.0457,0.0303,0.0311,0.0299,0.0608,0.0656,0.0681,0.0883,0.0826,0.0839,0.0848,0.0853,0.1227,0.1228,0,0,0,0,0,0,0.0054,0.0116,0.0118,0.0126,0.0114,0.0209,0.0224,0.0224,0.045,0.0478,0.0298,0.0306,0.063,0.0664,0.0696,0.0875,0.0841,0.0855,0.0863,0.1225,0.1227,0.1228,0,0,0,0,0,0,0.0054,0.0054,0.0112,0.011,0.0121,0.0205,0.0205,0.0226,0.0309,0.044,0.0478,0.0362,0.0633,0.0676,0.0875,0.0888,0.0861,0.0874,0.1224,0.1226,0.1228,0.1174,0,0,0,0,0,0,0.0054,0.0053,0.0051,0.0106,0.0118,0.0147,0.0203,0.0227,0.0289,0.0303,0.0507,0.0542,0.0637,0.0853,0.0889,0.0907,0.0885,0.1222,0.1225,0.1227,0.1174,0.1174,0.1173,0,0,0,0,0,0.0054,0.0045,0.0051,0.0051,0.0107,0.0145,0.0163,0.0238,0.029,0.0324,0.0494,0.0538,0.0891,0.0869,0.091,0.0932,0.1221,0.1224,0.1227,0.1174,0.1174,0.1173,0,0,0,0,0,0,0.0052,0.006,0.0069,0.0065,0.0097,0.0167,0.0193,0.0251,0.0408,0.0456,0.0596,0.0645,0.0806,0.0885,0.0856,0.1041,0.1046,0.1058,0.0992,0.0993,0.0992,0.0931,0.0898,0,0,0,0,0,0.0037,0.0046,0.0056,0.0063,0.0063,0.0136,0.0167,0.0231,0.035,0.042,0.0552,0.0704,0.0841,0.0934,0.1056,0.1192,0.1164,0.1219,0.1218,0.1217,0.1194,0.1196,0.1192,0.1238,0.1238,0.1238,0,0,0.0036,0.0043,0.0047,0.0063,0.0096,0.0098,0.0166,0.0226,0.0284,0.0442,0.0592,0.0719,0.0877,0.1018,0.1092,0.1098,0.1178,0.1221,0.1219,0.1196,0.1198,0.1193,0.1189,0.124,0.1239,0.1239,0,0,0.0022,0.0039,0.0026,0.0034,0.0067,0.0114,0.0127,0.0214,0.0311,0.0466,0.0579,0.0727,0.0938,0.104,0.1124,0.1199,0.1172,0.1221,0.1188,0.1191,0.1185,0.1181,0.1073,0.1059,0.1227,0.1227,0.1226,0,0.0016,-0.0003,0.0033,0.0007,0.0004,0.0108,0.0093,0.0202,0.0363,0.0449,0.0511,0.0797,0.0943,0.109,0.112,0.1197,0.1145,0.1179,0.1185,0.118,0.1176,0.1067,0.1053,0.1224,0.1225,0.1225,0.1225,0,-0.003,-0.0043,-0.005,-0.0054,-0.0041,-0.0019,0.0068,0.0165,0.0296,0.0406,0.0599,0.0792,0.0941,0.1009,0.1111,0.1157,0.1105,0.1174,0.1171,0.1167,0.1053,0.1039,0.1221,0.1222,0.1223,0.1223,0,0,-0.0052,-0.0078,-0.0083,-0.0105,-0.0068,-0.0058,0.0036,0.0146,0.0201,0.0419,0.0486,0.0769,0.0853,0.0947,0.1065,0.1098,0.1036,0.1117,0.1119,0.0979,0.0933,0.1012,0.1003,0.1095,0.1094,0.1093,0.0838,0,-0.0098,-0.0161,-0.0155,-0.0189,-0.0218,-0.0132,-0.0076,0.0055,0.0192,0.0289,0.0537,0.0654,0.0835,0.0882,0.0959,0.1029,0.1006,0.1092,0.0984,0.0978,0.1028,0.0995,0.1013,0.0801,0.0824,0.0822,0.082,0,-0.0162,-0.0187,-0.0252,-0.0265,-0.0274,-0.0275,-0.0205,-0.0135,0.0043,0.0151,0.0318,0.0466,0.0616,0.0723,0.083,0.0867,0.0877,0.0915,0.0908,0.0993,0.1035,0.0827,0.0774,0.0796,0.0798,0.0799,0.0801,0,-0.0207,-0.0256,-0.0302,-0.0318,-0.0318,-0.0309,-0.0281,-0.0161,-0.0093,0.0029,0.0069,0.027,0.0356,0.045,0.0647,0.0687,0.0688,0.0748,0.0798,0.0797,0.0801,0.0806,0.0727,0.0728,0.0728,0.0729,0.073,0,-0.0266,-0.0299,-0.033,-0.0364,-0.0395,-0.0383,-0.0387,-0.0322,-0.0251,-0.0184,-0.0016,0.0065,0.0293,0.039,0.0516,0.064,0.0591,0.0754,0.0758,0.078,0.0787,0.0804,0.0816,0.0719,0.0722,0.0723,0.0725,0,-0.0306,-0.0329,-0.0385,-0.0415,-0.0426,-0.0447,-0.0452,-0.0441,-0.0388,-0.0332,-0.0298,-0.0115,0.0028,0.0217,0.0333,0.0471,0.0565,0.0596,0.0569,0.058,0.0657,0.067,0.0548,0.055,0.055,0.0551,0.0552,0,-0.0334,-0.0373,-0.0433,-0.0464,-0.0481,-0.051,-0.0517,-0.0485,-0.0473,-0.0388,-0.0356,-0.0236,-0.0036,0.0149,0.0355,0.0488,0.0537,0.0536,0.0675,0.0633,0.0647,0.0659,0.067,0.0585,0.0586,0.0587,0.0588,0,-0.0381,-0.0401,-0.0445,-0.0508,-0.0544,-0.0578,-0.0592,-0.0599,-0.0543,-0.049,-0.0376,-0.0234,-0.0016,0.0234,0.0411,0.0509,0.0539,0.0557,0.0502,0.0692,0.0667,0.0683,0.0692,0.0594,0.0593,0.0593,0.0593,0.0592,-0.0403,-0.0442,-0.0499,-0.0551,-0.0592,-0.0622,-0.0634,-0.0633,-0.0596,-0.0487,-0.0342,-0.0079,0.0092,0.0453,0.0534,0.0585,0.06,0.0633,0.063,0.0626,0.074,0.0728,0.0675,0.0675,0.0675,0.0675,0.0675,0,-0.0423,-0.047,-0.0534,-0.0594,-0.0633,-0.0646,-0.0661,-0.064,-0.0586,-0.0458,-0.0277,0.0078,0.0365,0.0514,0.0624,0.0685,0.0663,0.0674,0.0647,0.0642,0.0637,0.0752,0.0689,0.0689,0.0688,0.0688,0,0,-0.0432,-0.0495,-0.0531,-0.0608,-0.0648,-0.0673,-0.0672,-0.0631,-0.0545,-0.0387,-0.0164,0.0188,0.0417,0.0513,0.0574,0.0611,0.0575,0.0597,0.0584,0.0531,0.0523,0.0625,0.08,0,0,0,0,0]}],[{"header":{"parameterUnit":"m.s-1","parameterCategory":2,"la1":30.2991,"la2":30.254,"lo1":-89.0895,"lo2":-89.0444,"dy":0.0017,"dx":0.0017,"nx":28,"ny":28,"refTime":"2023-07-30T09:00:00:Z","depth":"4","parameterNumber":2,"parameterNumberName":"U-component_of_CURRENTS"},"data":[0,0,0,0,0,0,0,0,0,0,0,0,0,0,0,0,0,0,0,0,0,0,0,0,0,0,0,0,0,0,0,0,0,0,0,0,0,0,0,0,0,0,0,0,0,0,0,0,0,0,0,0,0,0,0,0,0,0,-0.1212,-0.1213,0,-0.1287,-0.1288,-0.1288,-0.1319,-0.1319,-0.132,-0.132,-0.1375,-0.1377,-0.1378,0,0,0,0,0,0,0,0,0,0,0,0,0,-0.1103,-0.1105,-0.1212,-0.1213,-0.1214,-0.1287,-0.1288,-0.1289,-0.1319,-0.1319,-0.132,-0.132,-0.1375,-0.1376,-0.1378,0,0,0,0,0,0,0,0,0,0,0,0,0,-0.1159,-0.1105,-0.1212,-0.124,-0.1244,-0.1287,-0.1288,-0.1289,-0.1319,-0.1319,-0.132,-0.132,-0.1374,-0.1376,-0.1378,-0.1388,0,0,-0.1385,-0.1386,0,0,0,0,0,0,0,0,-0.1156,-0.1163,-0.1235,-0.1239,-0.1243,-0.1297,-0.127,-0.1322,-0.1319,-0.1288,-0.132,-0.132,-0.1349,-0.1353,-0.1363,-0.1391,-0.1393,-0.1385,-0.1386,-0.1387,-0.1388,0,0,0,0,0,0,0,-0.1152,-0.116,-0.1239,-0.1236,-0.1241,-0.1253,-0.1261,-0.128,-0.1314,-0.129,-0.1294,-0.1307,-0.135,-0.1361,-0.1365,-0.1394,-0.1385,-0.1387,-0.1388,-0.1389,-0.1483,-0.1484,0,0,0,0,0,0,-0.1148,-0.1156,-0.1236,-0.1241,-0.1202,-0.1255,-0.1263,-0.1277,-0.1314,-0.1321,-0.1306,-0.1308,-0.1357,-0.1362,-0.1367,-0.141,-0.1387,-0.1389,-0.139,-0.1482,-0.1483,-0.1485,0,0,0,0,0,0,-0.1145,-0.1155,-0.1233,-0.1202,-0.1214,-0.1257,-0.1272,-0.1278,-0.1308,-0.1327,-0.1333,-0.1332,-0.1358,-0.1364,-0.1393,-0.1411,-0.139,-0.1392,-0.148,-0.1482,-0.1484,-0.1478,0,0,0,0,0,0,-0.1142,-0.1153,-0.1165,-0.1202,-0.1216,-0.1268,-0.1272,-0.128,-0.1316,-0.1319,-0.1351,-0.1355,-0.1358,-0.1389,-0.1395,-0.1414,-0.1393,-0.1479,-0.1481,-0.1483,-0.1477,-0.148,-0.1482,0,0,0,0,0,-0.1138,-0.1155,-0.1165,-0.1175,-0.1229,-0.1269,-0.1277,-0.1306,-0.1318,-0.1333,-0.135,-0.1355,-0.1409,-0.1392,-0.1398,-0.1418,-0.1478,-0.148,-0.1483,-0.1476,-0.1479,-0.1482,0,0,0,0,0,0,-0.1118,-0.1161,-0.1172,-0.1203,-0.1237,-0.1276,-0.1296,-0.1318,-0.1345,-0.1352,-0.1365,-0.137,-0.1406,-0.1416,-0.1397,-0.1455,-0.1447,-0.1451,-0.1439,-0.1443,-0.1445,-0.1442,-0.1395,0,0,0,0,0,-0.1118,-0.1141,-0.1182,-0.1208,-0.1225,-0.1264,-0.1286,-0.131,-0.1339,-0.1352,-0.1374,-0.1399,-0.1421,-0.1434,-0.1456,-0.1483,-0.1491,-0.1504,-0.1507,-0.1509,-0.1512,-0.1538,-0.1543,-0.1494,-0.1494,-0.1494,0,0,-0.1115,-0.1145,-0.1157,-0.1205,-0.1232,-0.1263,-0.1277,-0.1319,-0.1345,-0.1353,-0.1393,-0.1412,-0.1432,-0.146,-0.1478,-0.147,-0.1527,-0.1512,-0.1513,-0.1516,-0.1541,-0.1546,-0.155,-0.1496,-0.1495,-0.1495,0,0,-0.1124,-0.115,-0.1171,-0.1201,-0.1252,-0.1276,-0.1293,-0.1341,-0.1361,-0.1399,-0.1413,-0.1438,-0.1477,-0.1489,-0.1499,-0.1533,-0.1542,-0.1552,-0.1557,-0.1582,-0.1586,-0.1589,-0.1598,-0.1602,-0.1549,-0.1549,-0.1549,0,-0.1121,-0.1155,-0.1184,-0.1215,-0.1241,-0.1283,-0.1312,-0.134,-0.1392,-0.1408,-0.1413,-0.1471,-0.1488,-0.1514,-0.1527,-0.1537,-0.1551,-0.1537,-0.1584,-0.1587,-0.1591,-0.1599,-0.1603,-0.1549,-0.1549,-0.1549,-0.1549,0,-0.1138,-0.1175,-0.1192,-0.1241,-0.127,-0.1306,-0.1345,-0.1379,-0.1408,-0.1433,-0.1473,-0.149,-0.1523,-0.1536,-0.154,-0.1579,-0.158,-0.1584,-0.1568,-0.1595,-0.1602,-0.1607,-0.155,-0.155,-0.155,-0.155,0,0,-0.1111,-0.1188,-0.1198,-0.1225,-0.1288,-0.1314,-0.1356,-0.14,-0.1435,-0.1466,-0.1503,-0.1528,-0.1543,-0.1557,-0.1569,-0.1588,-0.162,-0.1599,-0.1601,-0.1595,-0.1671,-0.1519,-0.151,-0.1635,-0.1636,-0.1637,-0.1662,0,-0.1119,-0.1174,-0.1214,-0.1267,-0.1294,-0.1344,-0.138,-0.1425,-0.1463,-0.151,-0.1521,-0.1563,-0.1549,-0.1574,-0.1587,-0.1626,-0.1635,-0.1613,-0.1658,-0.1659,-0.151,-0.1511,-0.164,-0.1666,-0.1667,-0.1668,-0.1668,0,-0.1116,-0.1157,-0.1205,-0.1282,-0.1299,-0.1339,-0.1403,-0.1445,-0.1508,-0.1539,-0.1568,-0.1593,-0.1624,-0.1615,-0.1655,-0.1645,-0.1658,-0.1672,-0.1674,-0.1537,-0.1515,-0.1639,-0.1677,-0.1676,-0.1676,-0.1675,-0.1675,0,-0.1062,-0.115,-0.1187,-0.1213,-0.1301,-0.1334,-0.1384,-0.1451,-0.1494,-0.1564,-0.1602,-0.1633,-0.1661,-0.1682,-0.1691,-0.1693,-0.173,-0.1736,-0.1603,-0.1593,-0.1726,-0.1722,-0.1761,-0.1761,-0.1761,-0.176,-0.176,0,-0.1039,-0.1076,-0.1172,-0.119,-0.1251,-0.1313,-0.1382,-0.1435,-0.1515,-0.1553,-0.1613,-0.1628,-0.1684,-0.1703,-0.1709,-0.165,-0.1738,-0.1596,-0.1585,-0.1723,-0.1719,-0.1729,-0.1725,-0.1761,-0.1761,-0.1761,-0.1761,0,-0.097,-0.1036,-0.1088,-0.1187,-0.1227,-0.1264,-0.1386,-0.1424,-0.1511,-0.1563,-0.1586,-0.1648,-0.165,-0.1679,-0.1714,-0.1652,-0.1633,-0.1593,-0.1727,-0.1726,-0.1481,-0.1477,-0.1452,-0.1447,-0.1442,-0.1439,-0.1436,0,-0.0941,-0.0957,-0.107,-0.1107,-0.1159,-0.124,-0.129,-0.1404,-0.1439,-0.154,-0.1542,-0.1587,-0.1604,-0.1522,-0.1567,-0.1547,-0.1527,-0.1511,-0.1496,-0.1455,-0.1448,-0.1451,-0.1453,-0.1429,-0.1427,-0.1426,-0.1425,0,-0.088,-0.0923,-0.0965,-0.104,-0.1103,-0.1173,-0.1251,-0.1274,-0.1377,-0.1476,-0.1449,-0.1436,-0.1429,-0.1419,-0.1407,-0.1396,-0.1519,-0.1464,-0.1474,-0.146,-0.1426,-0.1424,-0.1431,-0.141,-0.1412,-0.1413,-0.1414,0,-0.0833,-0.0845,-0.0903,-0.0961,-0.1037,-0.1069,-0.1133,-0.1164,-0.122,-0.1326,-0.1304,-0.1342,-0.1401,-0.1339,-0.1328,-0.1297,-0.128,-0.1242,-0.1263,-0.1281,-0.1208,-0.1139,-0.1015,0,0,0,0,0,-0.0777,-0.0779,-0.0823,-0.0881,-0.0948,-0.0991,-0.1085,-0.1145,-0.1248,-0.1187,-0.1245,-0.1222,-0.1183,-0.1205,-0.1136,-0.1254,-0.1293,-0.1168,-0.1263,-0.1324,-0.1342,-0.1269,0,0,0,0,0,0,-0.0741,-0.077,-0.0787,-0.0799,-0.0817,-0.0882,-0.0931,-0.1002,-0.0982,-0.1081,-0.1066,-0.1132,-0.1118,-0.1198,-0.1105,-0.1112,-0.1141,-0.1201,-0.1197,-0.1314,-0.133,-0.1345,-0.1276,0,0,0,0,0]},{"header":{"parameterUnit":"m.s-1","parameterCategory":2,"la1":30.2991,"la2":30.254,"lo1":-89.0895,"lo2":-89.0444,"dy":0.0017,"dx":0.0017,"nx":28,"ny":28,"refTime":"2023-07-30T09:00:00:Z","depth":"4","parameterNumber":3,"parameterNumberName":"V-component_of_CURRENTS"},"data":[0,0,0,0,0,0,0,0,0,0,0,0,0,0,0,0,0,0,0,0,0,0,0,0,0,0,0,0,0,0,0,0,0,0,0,0,0,0,0,0,0,0,0,0,0,0,0,0,0,0,0,0,0,0,0,0,0,0,-0.0162,-0.0163,0,-0.018,-0.0181,-0.0181,-0.0153,-0.0152,-0.0151,-0.015,-0.0144,-0.0145,-0.0146,0,0,0,0,0,0,0,0,0,0,0,0,0,-0.0117,-0.0118,-0.0162,-0.0163,-0.0163,-0.018,-0.0181,-0.0181,-0.0153,-0.0152,-0.0151,-0.015,-0.0144,-0.0145,-0.0146,0,0,0,0,0,0,0,0,0,0,0,0,0,-0.0137,-0.0119,-0.0162,-0.0151,-0.015,-0.018,-0.0181,-0.0181,-0.0154,-0.0152,-0.0151,-0.0149,-0.0143,-0.0145,-0.0146,-0.0184,0,0,-0.0149,-0.015,0,0,0,0,0,0,0,0,-0.0136,-0.0139,-0.0152,-0.0151,-0.015,-0.0162,-0.0162,-0.018,-0.0154,-0.0153,-0.015,-0.0148,-0.0149,-0.0149,-0.0157,-0.0183,-0.0183,-0.015,-0.015,-0.0151,-0.0151,0,0,0,0,0,0,0,-0.0135,-0.0138,-0.017,-0.0152,-0.0151,-0.0149,-0.015,-0.0166,-0.0159,-0.0153,-0.0151,-0.0152,-0.0148,-0.0156,-0.0157,-0.0183,-0.0149,-0.0151,-0.0151,-0.0152,-0.0232,-0.0233,0,0,0,0,0,0,-0.0132,-0.0137,-0.017,-0.0171,-0.0139,-0.0151,-0.0152,-0.0161,-0.0159,-0.0158,-0.0153,-0.0151,-0.0155,-0.0156,-0.0157,-0.0195,-0.0151,-0.0152,-0.0153,-0.0231,-0.0232,-0.0234,0,0,0,0,0,0,-0.0132,-0.0136,-0.0169,-0.0153,-0.0157,-0.0153,-0.0163,-0.0162,-0.0162,-0.016,-0.0158,-0.0154,-0.0154,-0.0155,-0.0179,-0.0195,-0.0152,-0.0153,-0.0229,-0.0231,-0.0233,-0.0277,0,0,0,0,0,0,-0.013,-0.0135,-0.0141,-0.0153,-0.0158,-0.0187,-0.0164,-0.0163,-0.0166,-0.0162,-0.016,-0.0158,-0.0153,-0.0177,-0.018,-0.0196,-0.0154,-0.0227,-0.023,-0.0232,-0.0273,-0.028,-0.0286,0,0,0,0,0,-0.0129,-0.014,-0.0142,-0.0145,-0.0166,-0.0187,-0.019,-0.0182,-0.0167,-0.0175,-0.0179,-0.0158,-0.0196,-0.018,-0.0183,-0.0199,-0.0226,-0.0229,-0.0232,-0.0271,-0.0279,-0.0286,0,0,0,0,0,0,-0.0121,-0.0139,-0.014,-0.0156,-0.0171,-0.0182,-0.0189,-0.0185,-0.0196,-0.0191,-0.0182,-0.0183,-0.0208,-0.0204,-0.0187,-0.0231,-0.0205,-0.0209,-0.0233,-0.0241,-0.0247,-0.0229,-0.0155,0,0,0,0,0,-0.0126,-0.0139,-0.0156,-0.017,-0.0178,-0.0186,-0.0192,-0.0191,-0.0201,-0.0203,-0.0207,-0.0213,-0.0228,-0.0233,-0.0246,-0.0275,-0.0217,-0.0286,-0.0293,-0.0298,-0.0286,-0.0226,-0.0224,-0.0244,-0.0244,-0.0244,0,0,-0.0128,-0.0138,-0.0147,-0.017,-0.0181,-0.0206,-0.0186,-0.0201,-0.0219,-0.0204,-0.0231,-0.0237,-0.0242,-0.0273,-0.0283,-0.0268,-0.0259,-0.0302,-0.0306,-0.0291,-0.0229,-0.0226,-0.0224,-0.0247,-0.0246,-0.0246,0,0,-0.0145,-0.0151,-0.0171,-0.0188,-0.0207,-0.0218,-0.0222,-0.0241,-0.0243,-0.0277,-0.0268,-0.0283,-0.0311,-0.0315,-0.032,-0.037,-0.0295,-0.0376,-0.039,-0.0332,-0.0329,-0.0326,-0.0228,-0.0215,-0.0377,-0.0377,-0.0377,0,-0.0146,-0.0176,-0.0181,-0.0206,-0.0222,-0.0225,-0.0254,-0.0265,-0.0289,-0.0291,-0.0289,-0.0322,-0.033,-0.0351,-0.0371,-0.0381,-0.0317,-0.0361,-0.0336,-0.0332,-0.0327,-0.0228,-0.0213,-0.038,-0.0379,-0.0379,-0.0379,0,-0.0181,-0.0207,-0.0221,-0.0257,-0.0274,-0.03,-0.0317,-0.033,-0.0335,-0.034,-0.0361,-0.0377,-0.0384,-0.0401,-0.0403,-0.039,-0.0342,-0.0349,-0.0309,-0.0327,-0.0222,-0.0206,-0.0383,-0.0382,-0.0381,-0.0381,0,0,-0.0184,-0.0236,-0.0242,-0.0267,-0.0302,-0.0321,-0.0348,-0.037,-0.0369,-0.0396,-0.0394,-0.0437,-0.0423,-0.0428,-0.0431,-0.0394,-0.0314,-0.036,-0.0356,-0.0246,-0.014,-0.0148,-0.013,-0.0308,-0.0306,-0.0304,-0.007,0,-0.0213,-0.0268,-0.0286,-0.0341,-0.0372,-0.038,-0.0403,-0.0416,-0.0416,-0.0414,-0.0418,-0.0423,-0.0439,-0.0436,-0.0407,-0.0341,-0.0277,-0.0374,-0.0152,-0.0145,-0.0138,-0.0115,-0.0299,-0.0058,-0.0054,-0.0051,-0.0049,0,-0.0247,-0.0278,-0.0336,-0.038,-0.0393,-0.0422,-0.0436,-0.0454,-0.0443,-0.0436,-0.0431,-0.0419,-0.0391,-0.0396,-0.0266,-0.0321,-0.0227,-0.0169,-0.0159,-0.0138,-0.0125,-0.0043,-0.0019,-0.0021,-0.0024,-0.0026,-0.0027,0,-0.0254,-0.0315,-0.036,-0.0379,-0.0426,-0.0443,-0.0461,-0.046,-0.046,-0.0435,-0.0413,-0.0384,-0.0346,-0.0257,-0.0159,-0.019,0.0016,-0.0009,0.0084,0.0088,0.0047,0.0041,0.0117,0.0116,0.0116,0.0115,0.0114,0,-0.0284,-0.0321,-0.0367,-0.0394,-0.0435,-0.0454,-0.0475,-0.0477,-0.046,-0.0436,-0.0419,-0.0372,-0.0306,-0.0199,-0.0115,0.004,0.0063,0.0106,0.0143,0.0024,0.0012,0.0061,0.0052,0.0124,0.0122,0.012,0.0119,0,-0.0296,-0.0329,-0.0384,-0.0432,-0.0447,-0.0473,-0.0497,-0.0496,-0.0468,-0.0427,-0.0413,-0.033,-0.0182,-0.0098,0.0077,0.0113,0.0247,0.0303,0.0211,0.0236,0.0282,0.0267,0.0446,0.0447,0.0448,0.045,0.045,0,-0.0307,-0.0338,-0.0406,-0.0436,-0.0465,-0.0498,-0.0514,-0.0509,-0.0495,-0.0387,-0.0359,-0.0214,-0.0149,0.0119,0.0182,0.0362,0.0359,0.0438,0.0311,0.0295,0.0314,0.0297,0.0281,0.0453,0.0453,0.0453,0.0454,0,-0.0323,-0.0351,-0.0394,-0.0455,-0.0492,-0.0523,-0.0537,-0.052,-0.0473,-0.0441,-0.0265,-0.0141,0.0031,0.0164,0.0298,0.041,0.0375,0.0452,0.0449,0.033,0.0306,0.0319,0.0302,0.0458,0.0458,0.0457,0.0457,0,-0.0326,-0.036,-0.0415,-0.0469,-0.0515,-0.053,-0.0539,-0.0482,-0.045,-0.0322,-0.0246,-0.0067,0.0037,0.0197,0.0321,0.0417,0.0421,0.0421,0.0419,0.0415,0.0288,0.0245,0.0435,0,0,0,0,0,-0.0319,-0.0361,-0.0419,-0.048,-0.0525,-0.0546,-0.0544,-0.0536,-0.0472,-0.0338,-0.0287,-0.0115,0.01,0.0191,0.0294,0.0293,0.0392,0.0409,0.0379,0.0484,0.0478,0.0327,0,0,0,0,0,0,-0.0319,-0.0373,-0.0416,-0.0473,-0.051,-0.0548,-0.0544,-0.0504,-0.0424,-0.0332,-0.021,-0.0113,0.0085,0.0051,0.0294,0.0322,0.0309,0.0514,0.0516,0.0487,0.0482,0.0478,0.032,0,0,0,0,0]}]]